Hourly Weather Nam Dinh

Today, 3 August, Monday

Time Temperature Precipitation Wind Pressure Humidity
00:00 +28°C° 0.8 mm 2 mps 749 mmHg 93%
01:00 +28°C° 0 mm 3 mps 749 mmHg 94%
02:00 +28°C° 1.8 mm 2 mps 749 mmHg 93%
03:00 +28°C° 1.8 mm 2 mps 749 mmHg 93%
04:00 +28°C° 1.8 mm 2 mps 748 mmHg 93%
05:00 +28°C° 1 mm 2 mps 749 mmHg 92%
06:00 +29°C° 1 mm 2 mps 749 mmHg 91%
07:00 +29°C° 0 mm 2 mps 749 mmHg 90%
08:00 +30°C° 1.2 mm 2 mps 749 mmHg 88%
09:00 +30°C° 1.2 mm 2 mps 750 mmHg 85%
10:00 +31°C° 1.2 mm 3 mps 750 mmHg 82%
11:00 +30°C° 0.5 mm 2 mps 750 mmHg 83%
12:00 +30°C° 0.5 mm 2 mps 749 mmHg 83%
13:00 +29°C° 0 mm 1 mps 749 mmHg 85%
14:00 +30°C° 0 mm 1 mps 749 mmHg 83%
15:00 +30°C° 0 mm 1 mps 748 mmHg 82%
16:00 +30°C° 0 mm 1 mps 748 mmHg 81%
17:00 +30°C° 0.4 mm 1 mps 748 mmHg 83%
18:00 +29°C° 0.4 mm 1 mps 748 mmHg 86%
19:00 +29°C° 0 mm 1 mps 749 mmHg 89%
20:00 +29°C° 1.4 mm 2 mps 749 mmHg 90%
21:00 +29°C° 1.4 mm 2 mps 750 mmHg 91%
22:00 +28°C° 1.4 mm 2 mps 751 mmHg 91%
23:00 +28°C° 0.8 mm 2 mps 750 mmHg 92%

Tomorrow, 4 August, Tuesday

Time Temperature Precipitation Wind Pressure Humidity
00:00 +28°C° 0.8 mm 2 mps 750 mmHg 92%
01:00 +28°C° 0.8 mm 2 mps 750 mmHg 92%
02:00 +28°C° 0.5 mm 2 mps 749 mmHg 93%
03:00 +28°C° 0.5 mm 2 mps 749 mmHg 94%
04:00 +28°C° 0.5 mm 2 mps 749 mmHg 94%
05:00 +28°C° 1.1 mm 2 mps 749 mmHg 94%
06:00 +28°C° 1.1 mm 2 mps 750 mmHg 94%
07:00 +28°C° 1.1 mm 2 mps 750 mmHg 93%
08:00 +29°C° 1.2 mm 2 mps 750 mmHg 90%
09:00 +30°C° 1.2 mm 2 mps 750 mmHg 88%
10:00 +30°C° 1.2 mm 2 mps 750 mmHg 85%
11:00 +30°C° 0.8 mm 2 mps 750 mmHg 85%
12:00 +30°C° 0.8 mm 2 mps 750 mmHg 85%
13:00 +30°C° 0.8 mm 2 mps 749 mmHg 85%
14:00 +30°C° 0.1 mm 2 mps 749 mmHg 86%
15:00 +30°C° 0.1 mm 2 mps 748 mmHg 87%
16:00 +30°C° 0.1 mm 2 mps 748 mmHg 88%
17:00 +29°C° 0 mm 2 mps 748 mmHg 88%
18:00 +29°C° 0 mm 2 mps 748 mmHg 89%
19:00 +29°C° 0 mm 2 mps 749 mmHg 89%
20:00 +29°C° 0 mm 3 mps 749 mmHg 89%
21:00 +29°C° 0 mm 3 mps 750 mmHg 89%
22:00 +29°C° 0 mm 3 mps 751 mmHg 88%
23:00 +28°C° 0.2 mm 3 mps 750 mmHg 90%

Day after tomorrow, 5 August, Wednesday

Time Temperature Precipitation Wind Pressure Humidity
00:00 +28°C° 0.2 mm 3 mps 750 mmHg 91%
01:00 +28°C° 0.2 mm 3 mps 750 mmHg 92%
02:00 +28°C° 0.1 mm 2 mps 750 mmHg 92%
03:00 +28°C° 0.1 mm 2 mps 750 mmHg 93%
04:00 +27°C° 0.1 mm 1 mps 749 mmHg 93%
05:00 +28°C° 0 mm 1 mps 750 mmHg 93%
06:00 +28°C° 0 mm 1 mps 750 mmHg 93%
07:00 +28°C° 0 mm 1 mps 751 mmHg 92%
08:00 +29°C° 0.3 mm 1 mps 751 mmHg 90%
09:00 +29°C° 0.3 mm 1 mps 751 mmHg 88%
10:00 +30°C° 0.3 mm 2 mps 751 mmHg 86%
11:00 +31°C° 0.5 mm 2 mps 751 mmHg 81%
12:00 +33°C° 0.5 mm 3 mps 750 mmHg 77%
13:00 +34°C° 0.5 mm 3 mps 750 mmHg 73%
14:00 +34°C° 0.1 mm 3 mps 749 mmHg 72%
15:00 +34°C° 0.1 mm 3 mps 749 mmHg 71%
16:00 +34°C° 0.1 mm 3 mps 748 mmHg 70%
17:00 +33°C° 0 mm 3 mps 748 mmHg 74%
18:00 +31°C° 0 mm 3 mps 749 mmHg 79%
19:00 +30°C° 0 mm 2 mps 749 mmHg 84%
20:00 +30°C° 0.2 mm 3 mps 750 mmHg 85%
21:00 +30°C° 0.2 mm 4 mps 751 mmHg 86%
22:00 +29°C° 0.2 mm 5 mps 751 mmHg 87%
23:00 +29°C° 0.1 mm 4 mps 751 mmHg 87%

6 August, Thursday

Time Temperature Precipitation Wind Pressure Humidity
00:00 +29°C° 0.1 mm 3 mps 751 mmHg 87%
01:00 +29°C° 0.1 mm 2 mps 751 mmHg 87%
02:00 +29°C° 0.2 mm 3 mps 751 mmHg 87%
03:00 +29°C° 0.2 mm 3 mps 751 mmHg 87%
04:00 +29°C° 0.2 mm 4 mps 750 mmHg 88%
05:00 +29°C° 0.5 mm 3 mps 751 mmHg 88%
06:00 +29°C° 0.5 mm 3 mps 751 mmHg 87%
07:00 +29°C° 0.5 mm 3 mps 751 mmHg 87%
08:00 +30°C° 0.5 mm 3 mps 752 mmHg 86%
09:00 +30°C° 0.5 mm 3 mps 752 mmHg 84%
10:00 +30°C° 0.5 mm 3 mps 752 mmHg 83%
11:00 +31°C° 0.2 mm 3 mps 752 mmHg 81%
12:00 +31°C° 0.2 mm 3 mps 752 mmHg 79%
13:00 +33°C° 0.2 mm 3 mps 751 mmHg 77%
14:00 +33°C° 0.2 mm 4 mps 751 mmHg 78%
15:00 +33°C° 0.2 mm 4 mps 751 mmHg 78%
16:00 +33°C° 0.2 mm 4 mps 750 mmHg 79%
17:00 +32°C° 0 mm 4 mps 751 mmHg 81%
18:00 +32°C° 0 mm 4 mps 752 mmHg 83%
19:00 +30°C° 0 mm 4 mps 752 mmHg 85%
20:00 +30°C° 2.1 mm 4 mps 753 mmHg 86%
21:00 +30°C° 2.1 mm 5 mps 753 mmHg 86%
22:00 +29°C° 2.1 mm 5 mps 754 mmHg 87%
23:00 +29°C° 3 mm 5 mps 753 mmHg 88%

7 August, Friday

Time Temperature Precipitation Wind Pressure Humidity
00:00 +29°C° 3 mm 5 mps 753 mmHg 88%
01:00 +29°C° 3 mm 5 mps 753 mmHg 89%
02:00 +29°C° 2.8 mm 4 mps 753 mmHg 90%
03:00 +29°C° 2.8 mm 4 mps 753 mmHg 90%
04:00 +28°C° 2.8 mm 4 mps 753 mmHg 91%
05:00 +28°C° 1.8 mm 3 mps 753 mmHg 91%
06:00 +28°C° 1.8 mm 3 mps 753 mmHg 91%
07:00 +28°C° 1.8 mm 2 mps 754 mmHg 91%
08:00 +29°C° 0.3 mm 2 mps 754 mmHg 89%
09:00 +30°C° 0.3 mm 2 mps 754 mmHg 87%
10:00 +30°C° 0.3 mm 2 mps 754 mmHg 85%
11:00 +31°C° 0.4 mm 3 mps 754 mmHg 83%
12:00 +31°C° 0.4 mm 3 mps 754 mmHg 81%
13:00 +33°C° 0.4 mm 4 mps 753 mmHg 79%
14:00 +33°C° 0.4 mm 4 mps 753 mmHg 79%
15:00 +33°C° 0.4 mm 4 mps 752 mmHg 79%
16:00 +33°C° 0.4 mm 4 mps 751 mmHg 78%
17:00 +32°C° 0.2 mm 4 mps 752 mmHg 82%
18:00 +30°C° 0.2 mm 4 mps 752 mmHg 86%
19:00 +29°C° 0.2 mm 3 mps 752 mmHg 89%
20:00 +29°C° 0.1 mm 3 mps 753 mmHg 90%
21:00 +29°C° 0.1 mm 3 mps 754 mmHg 90%
22:00 +29°C° 0.1 mm 3 mps 754 mmHg 90%
23:00 +29°C° 0.5 mm 2 mps 754 mmHg 90%

8 August, Saturday

Time Temperature Precipitation Wind Pressure Humidity
00:00 +29°C° 0.5 mm 2 mps 754 mmHg 91%
01:00 +28°C° 0.5 mm 1 mps 753 mmHg 91%
02:00 +28°C° 0.5 mm 1 mps 753 mmHg 91%
03:00 +28°C° 0.5 mm 1 mps 753 mmHg 91%
04:00 +28°C° 0.5 mm 1 mps 752 mmHg 91%
05:00 +29°C° 0 mm 1 mps 753 mmHg 90%
06:00 +29°C° 0 mm 1 mps 753 mmHg 88%
07:00 +28°C° 0 mm 0 mps 753 mmHg 86%
08:00 +31°C° 0 mm 1 mps 753 mmHg 80%
09:00 +32°C° 0 mm 1 mps 753 mmHg 75%
10:00 +33°C° 0 mm 1 mps 753 mmHg 69%
11:00 +35°C° 0.2 mm 2 mps 753 mmHg 67%
12:00 +35°C° 0.2 mm 2 mps 752 mmHg 65%
13:00 +36°C° 0.2 mm 3 mps 752 mmHg 63%
14:00 +35°C° 0.1 mm 3 mps 751 mmHg 64%
15:00 +35°C° 0.1 mm 4 mps 751 mmHg 65%
16:00 +35°C° 0.1 mm 4 mps 750 mmHg 66%
17:00 +33°C° 0 mm 4 mps 750 mmHg 71%
18:00 +31°C° 0 mm 3 mps 751 mmHg 76%
19:00 +30°C° 0 mm 3 mps 751 mmHg 81%
20:00 +30°C° 0 mm 3 mps 751 mmHg 82%
21:00 +29°C° 0 mm 3 mps 752 mmHg 83%
22:00 +29°C° 0 mm 3 mps 753 mmHg 85%
23:00 +29°C° 0 mm 3 mps 753 mmHg 86%
Show more